Вернуться в каталог

FENGYUN 1C DEB

АктивенSSO
NORAD 30310·DEBRIS·🇨🇳 China

Запущен May 10, 1999 с Taiyuan Satellite Launch Center

Loading…

Ближайшие Пролёты (ближайшие 24 часа)

TLE

СвежийSource: Space-Track

Эпоха: Sep 14, 2026, 23:29 UTC

1 30310U 99025ZX  26257.97885246  .00000684  00000-0  32431-3 0  9997
2 30310  98.6521 271.9811 0238107 294.1007  63.5423 14.09047445  6202

Отслеживайте FENGYUN 1C DEB в реальном времени с AllMySat

Download on the App Store